Location: Burgberg
(50.1428°N, 11.0671°E)
Time: 21:15:20
(UTC+00:00)

NOSS 3-2 (A) - Pass Details

Date: 26 January 2020
Orbit: 810 x 1398 km, 63.4° (Epoch: 10 February)

Event Time Altitude Azimuth Distance (km) Brightness Sun altitude
Exits shadow 03:29:52 55° 176° (S) 1,518 4.3 -33.2°
Drops below altitude 10° 03:36:23 10° 152° (SSE) 3,407 6.5 -32.2°
Sets 03:39:23 0° 150° (SSE) 4,415 7.2 -31.7°
